Weather reports worldwide

Advertisment
Carlisle, United Kingdom (3220): temperature & dewpoint: 18.11.2020 03:00:00 - 24.11.2020 03:00:00 (GMT)Carlisle, United Kingdom (3220): temperature -100cm: 18.11.2020 03:00:00 - 24.11.2020 03:00:00 (GMT)Carlisle, United Kingdom (3220): reduced air pressure: 18.11.2020 03:00:00 - 24.11.2020 03:00:00 (GMT)Carlisle, United Kingdom (3220): visibility: 18.11.2020 03:00:00 - 24.11.2020 03:00:00 (GMT)Carlisle, United Kingdom (3220): precipitation: 18.11.2020 03:00:00 - 24.11.2020 03:00:00 (GMT)
Date & Time tt [°C] td [°C] tt -100cm [°C] ppp [hPa] vv [km] rr [mm]
24.11.2020 03:00:00 11,6 10,2 - 1010,8 9 -
24.11.2020 02:00:00 11,4 10,2 - 1011,3 14 1,0
24.11.2020 01:00:00 11,8 10,0 - 1011,6 10 0,2
24.11.2020 00:00:00 11,4 10,2 - 1012,2 8 1,2
23.11.2020 23:00:00 11,5 10,2 - 1012,4 6 1,8
23.11.2020 22:00:00 11,6 10,1 - 1012,5 3,3 2,0
23.11.2020 21:00:00 11,6 9,8 - 1012,7 8 0,2
23.11.2020 20:00:00 11,8 9,6 - 1013,0 19 0,0
23.11.2020 19:00:00 11,7 9,5 - 1013,0 19 0,4
23.11.2020 18:00:00 11,4 9,8 - 1013,9 13 0,0
23.11.2020 17:00:00 10,8 9,5 - 1014,9 18 0,0
23.11.2020 16:00:00 10,7 9,1 - 1015,0 6 0,0
23.11.2020 15:00:00 10,5 8,8 - 1015,5 10 0,0
23.11.2020 14:00:00 8,4 6,5 - 1016,6 13 0,2
23.11.2020 13:00:00 9,9 6,0 - 1017,9 45 0,0
23.11.2020 12:00:00 9,2 5,0 - 1019,2 75 0,0
23.11.2020 11:00:00 8,4 4,3 - 1020,5 50 0,0
23.11.2020 10:00:00 7,9 4,0 - 1021,0 65 0,0
23.11.2020 09:00:00 6,6 3,7 10,2 1021,5 55 0,0
23.11.2020 08:00:00 6,4 4,5 - 1021,2 50 0,0
23.11.2020 07:00:00 6,8 5,2 - 1022,2 40 0,0
23.11.2020 06:00:00 6,8 5,2 - 1022,8 50 0,0
23.11.2020 05:00:00 6,2 5,0 - 1023,1 40 0,6
23.11.2020 04:00:00 5,1 4,0 - 1023,5 40 0,0
23.11.2020 03:00:00 4,5 3,5 - 1023,4 28 0,0
23.11.2020 02:00:00 4,8 4,0 - 1023,5 30 0,0
23.11.2020 01:00:00 4,6 3,5 - 1023,8 35 0,0
23.11.2020 00:00:00 5,3 4,1 - 1024,0 35 0,0
22.11.2020 23:00:00 5,5 3,8 - 1023,7 35 0,0
22.11.2020 22:00:00 5,8 3,7 - 1023,5 40 0,0
22.11.2020 21:00:00 6,3 3,7 - 1023,4 45 0,0
22.11.2020 20:00:00 6,4 3,8 - 1023,4 50 0,0
22.11.2020 19:00:00 6,4 3,6 - 1023,2 45 0,0
22.11.2020 18:00:00 5,9 3,6 - 1022,9 45 0,0
22.11.2020 17:00:00 6,2 3,5 - 1022,7 40 0,0
22.11.2020 16:00:00 6,6 3,7 - 1022,3 40 0,0
22.11.2020 15:00:00 7,9 4,3 - 1022,5 35 0,0
22.11.2020 14:00:00 8,2 4,0 - 1022,6 35 0,0
22.11.2020 13:00:00 8,6 4,3 - 1022,9 30 0,0
22.11.2020 12:00:00 7,9 4,3 - 1023,2 30 0,0
22.11.2020 11:00:00 7,8 4,7 - 1023,2 26 0,0
22.11.2020 10:00:00 6,8 4,2 - 1022,9 24 0,0
22.11.2020 09:00:00 5,8 3,7 10,4 1022,5 27 0,0
22.11.2020 08:00:00 5,6 3,5 - 1022,0 26 0,0
22.11.2020 07:00:00 5,9 3,7 - 1021,3 18 0,0
22.11.2020 06:00:00 6,4 3,8 - 1020,6 21 0,0
22.11.2020 05:00:00 6,6 3,8 - 1020,4 22 0,0
22.11.2020 04:00:00 6,7 3,8 - 1020,3 20 0,0
22.11.2020 03:00:00 6,9 3,4 - 1020,3 25 0,0
22.11.2020 02:00:00 6,8 3,5 - 1019,6 25 0,0
22.11.2020 01:00:00 7,2 3,7 - 1019,7 26 0,0
22.11.2020 00:00:00 7,3 4,3 - 1019,5 28 0,0
21.11.2020 23:00:00 7,8 4,4 - 1019,3 28 0,0
21.11.2020 22:00:00 7,8 4,6 - 1019,0 29 0,0
21.11.2020 21:00:00 8,2 4,6 - 1018,8 30 0,0
21.11.2020 20:00:00 8,5 5,4 - 1018,9 27 0,0
21.11.2020 19:00:00 8,3 5,8 - 1018,8 30 0,0
21.11.2020 18:00:00 8,3 4,8 - 1018,3 50 0,0
21.11.2020 17:00:00 8,4 5,2 - 1018,2 35 0,0
21.11.2020 16:00:00 9,4 6,6 - 1018,0 28 0,0
21.11.2020 15:00:00 9,9 6,8 - 1017,8 29 0,0
21.11.2020 14:00:00 9,9 6,9 - 1017,5 35 0,0
21.11.2020 13:00:00 10,4 8,0 - 1017,4 40 0,0
21.11.2020 12:00:00 9,4 8,1 - 1017,8 45 0,0
21.11.2020 11:00:00 9,1 8,6 - 1017,2 15 0,4
21.11.2020 10:00:00 8,9 8,6 - 1017,1 2,0 0,6
21.11.2020 09:00:00 9,0 8,6 10,5 1016,2 5 2,0
21.11.2020 08:00:00 10,3 9,7 - 1015,4 2,1 1,4
21.11.2020 07:00:00 10,4 9,6 - 1015,3 2,2 0,2
21.11.2020 06:00:00 11,3 9,4 - 1014,9 9 0,0
21.11.2020 05:00:00 11,4 9,6 - 1015,2 15 0,0
21.11.2020 04:00:00 11,6 9,6 - 1015,4 6 0,0
21.11.2020 03:00:00 11,3 9,7 - 1016,0 11 0,0
21.11.2020 02:00:00 11,4 10,1 - 1016,3 9 0,2
21.11.2020 01:00:00 11,4 9,9 - 1017,2 30 0,0
21.11.2020 00:00:00 10,9 10,1 - 1017,8 8 0,2
20.11.2020 23:00:00 10,8 10,1 - 1018,5 2,1 0,4
20.11.2020 22:00:00 10,7 9,9 - 1019,0 3,8 0,6
20.11.2020 21:00:00 11,3 9,6 - 1019,6 9 0,0
20.11.2020 20:00:00 11,7 9,7 - 1019,5 30 0,0
20.11.2020 19:00:00 11,8 10,0 - 1020,0 35 0,0
20.11.2020 18:00:00 11,4 10,7 - 1020,2 2,5 0,2
20.11.2020 17:00:00 11,9 10,4 - 1020,5 21 0,0
20.11.2020 16:00:00 11,8 10,8 - 1020,3 45 0,6
20.11.2020 15:00:00 11,4 11,0 - 1020,8 1,3 0,2
20.11.2020 14:00:00 9,9 9,3 - 1021,3 45 0,6
20.11.2020 13:00:00 8,8 8,0 - 1022,7 1,5 1,0
20.11.2020 12:00:00 8,5 7,1 - 1023,7 65 0,0
20.11.2020 11:00:00 7,7 6,5 - 1024,7 14 0,6
20.11.2020 10:00:00 7,3 5,7 - 1025,0 30 0,0
20.11.2020 09:00:00 6,8 5,1 10,7 1025,7 12 0,2
20.11.2020 08:00:00 6,7 5,1 - 1026,2 4,1 0,0
20.11.2020 07:00:00 6,3 4,1 - 1026,7 9 0,0
20.11.2020 06:00:00 5,4 3,0 - 1027,3 35 0,0
20.11.2020 05:00:00 4,7 2,0 - 1028,2 40 0,0
20.11.2020 04:00:00 4,2 1,4 - 1029,1 45 0,0
20.11.2020 03:00:00 4,3 1,7 - 1029,8 45 0,0
20.11.2020 02:00:00 3,4 1,7 - 1030,4 35 0,0
20.11.2020 01:00:00 3,2 1,9 - 1031,2 30 0,0
20.11.2020 00:00:00 3,3 1,8 - 1031,6 21 0,0
19.11.2020 23:00:00 3,7 1,9 - 1032,4 22 0,0
19.11.2020 22:00:00 3,5 1,0 - 1032,5 16 0,0
19.11.2020 21:00:00 3,5 0,6 - 1032,2 25 0,0
19.11.2020 20:00:00 2,8 0,4 - 1032,3 27 0,0
19.11.2020 19:00:00 3,4 -0,2 - 1032,0 35 0,0
19.11.2020 18:00:00 3,4 -0,8 - 1031,4 40 0,0
19.11.2020 17:00:00 5,0 0,4 - 1030,8 45 0,0
19.11.2020 16:00:00 5,6 0,7 - 1031,0 2,7 0,0
19.11.2020 15:00:00 5,9 0,6 - 1030,0 4,3 0,0
19.11.2020 14:00:00 7,1 0,1 - 1028,3 9 0,0
19.11.2020 13:00:00 6,6 1,0 - 1029,5 45 0,0
19.11.2020 12:00:00 5,9 0,6 - 1029,0 40 0,0
19.11.2020 11:00:00 5,6 1,2 - 1028,0 50 0,0
19.11.2020 10:00:00 5,2 -0,4 - 1026,0 45 0,0
19.11.2020 09:00:00 3,3 -0,9 10,7 1024,4 30 0,0
19.11.2020 08:00:00 4,1 0,1 - 1023,0 45 0,0
19.11.2020 07:00:00 4,7 0,8 - 1021,3 60 0,0
19.11.2020 06:00:00 5,9 2,5 - 1019,1 75 0,0
19.11.2020 05:00:00 6,7 2,8 - 1016,9 75 0,0
19.11.2020 04:00:00 7,6 4,3 - 1014,2 75 0,0
19.11.2020 03:00:00 8,2 5,7 - 1011,2 55 0,0
19.11.2020 02:00:00 7,3 5,5 - 1008,6 55 0,0
19.11.2020 01:00:00 7,9 5,9 - 1006,6 55 0,0
19.11.2020 00:00:00 8,7 6,6 - 1005,0 26 0,0
18.11.2020 23:00:00 8,7 7,0 - 1003,6 22 0,6
18.11.2020 22:00:00 8,3 6,9 - 1003,7 22 1,0
18.11.2020 21:00:00 8,4 6,0 - 1003,7 2,4 0,2
18.11.2020 20:00:00 8,9 5,1 - 1004,2 25 0,0
18.11.2020 19:00:00 8,6 4,8 - 1004,1 30 0,0
18.11.2020 18:00:00 8,6 5,9 - 1003,0 24 0,8
18.11.2020 17:00:00 8,9 4,1 - 1003,2 30 0,0
18.11.2020 16:00:00 8,5 4,6 - 1003,4 30 0,6
18.11.2020 15:00:00 8,7 6,8 - 1002,9 35 0,8
18.11.2020 14:00:00 9,8 8,8 - 1002,1 8 0,8
18.11.2020 13:00:00 10,1 9,2 - 1001,9 4,2 2,0
18.11.2020 12:00:00 12,4 10,9 - 1001,1 10 0,2
18.11.2020 11:00:00 12,7 11,1 - 1001,6 6 0,6
18.11.2020 10:00:00 12,5 10,6 - 1002,5 19 0,0
18.11.2020 09:00:00 12,5 10,5 10,7 1003,7 25 0,2
18.11.2020 08:00:00 13,2 10,2 - 1004,7 30 0,0
18.11.2020 07:00:00 13,1 10,0 - 1005,5 70 0,0
18.11.2020 06:00:00 13,8 9,8 - 1006,1 65 0,0
18.11.2020 05:00:00 13,6 9,7 - 1007,3 60 0,0
18.11.2020 04:00:00 13,3 9,6 - 1008,3 60 0,0
18.11.2020 03:00:00 13,0 9,8 - 1008,9 60 0,0

tt = temperature
td = dewpoint
tt -100cm = temperature -100cm
ppp = reduced air pressure
vv = visibility
rr = precipitation

Next stations